Погода в Гате

Ливия     24°57′57″N   10°11′01″E
темп.,
°C
ветер,
м/с
пор.,
м/с
влажн.,
%
обл.,
%
осадки,
мм/ч
давл.,
гПа
погр.,
м
25 февраля, чт
чт2523:00+16вюв915210 0.0 1022359
02:00+12ююв24270 0.0 102278
05:00+10юв34300 0.0 102164
08:00+9юв34300 0.0 102268
11:00+16юв58200 0.0 1022796
14:00+21юв56130 0.0 10181193
17:00+23юв55110 0.0 10151890
20:00+19в812160 0.0 1017257
26 февраля, пт
пт2623:00+16вюв6112141 0.0 1019238
02:00+12вюв232728 0.0 101971
05:00+11ю23280 0.0 101929
08:00+10ююв23307 0.0 102023
11:00+17вюв231946 0.0 1021634
14:00+22вюв441349 0.0 10171367
17:00+24в761110 0.0 10151701
20:00+20в58155 0.0 1017148
27 февраля, сб
сб2723:00+16вюв611200 0.0 1020258
02:00+12ююв23250 0.0 102038
05:00+11ююв22280 0.0 102024
08:00+10ююв23290 0.0 102024
11:00+18юв34180 0.0 1021670
14:00+24юв44110 0.0 10171210
17:00+25вюв6590 0.0 10151975
20:00+21в69120 0.0 1017154
28 февраля, вс
вс2823:00+17юв49170 0.0 1019219
02:00+14ююв33210 0.0 101939
05:00+12юв23240 0.0 101924
08:00+11юв33280 0.0 102025
11:00+19ююв34170 0.0 1021595
14:00+25юв32110 0.0 10171318
17:00+26вюв5490 0.0 10151973
20:00+21в57120 0.0 101792
1 марта, пн
пн123:00+17юв461839 0.0 1020146
02:00+15ююв332254 0.0 102040
05:00+14ююв232437 0.0 102023
08:00+13юв232564 0.0 102025
11:00+20юв451525 0.0 1021655
14:00+25юв331012 0.0 10181169
17:00+27вюв6490 0.0 10161575
20:00+22вюв68110 0.0 1017147